Regional Weather Roundup
Issued by NWS Newport/Morehead, NC

Current Version | Previous Version | Text Only | Print | Product List | Glossary On
Versions: 1 2 3 4 5 6 7 8 9 10 11 12 13 14 15 16 17 18 19 20 21 22 23 24 25 26 27 28 29 30 31 32 33 34 35 36 37 38 39 40 41 42 43 44 45 46 47 48 49 50
000
ASUS42 KMHX 292113
RWRMHX
WEATHER ROUNDUP FOR EASTERN NORTH CAROLINA
NATIONAL WEATHER SERVICE NEWPORT/MOREHEAD CITY NC
500 PM EDT MON JUN 29 2015

NOTE: "FAIR" INDICATES FEW OR NO CLOUDS BELOW 12,000 FEET
WITH NO SIGNIFICANT WEATHER AND/OR OBSTRUCTIONS TO VISIBILITY

NCZ015>017-031-032-045>047-102-103-292200-
NORTH COAST

CITY           SKY/WX    TMP DP  RH WIND       PRES   REMARKS
EDENTON          N/A     83  69  62 SE8       29.94F
ELIZABETH CITY PTSUNNY   81  66  60 E10       29.96S
KITTY HAWK     MOCLDY    85  67  55 SE9       29.95S
MANTEO         PTSUNNY   81  67  61 SE7       29.96S

$$

NCZ045>047-081-094-103-104-292200-
CENTRAL COAST

CITY           SKY/WX    TMP DP  RH WIND       PRES   REMARKS
FRISCO         PTSUNNY   79  70  74 CALM      29.96S
SWANQUARTER      N/A     84 N/A N/A S8        29.91S

$$

NCZ095-097-098-100-101-292200-
SOUTHERN COAST

CITY           SKY/WX    TMP DP  RH WIND       PRES   REMARKS
BEAUFORT       PTSUNNY   81  75  82 S9G17     29.94F
CEDAR ISLAND     N/A     88 N/A N/A SE6       29.97F
JACKSONVILLE   MOSUNNY   84  68  58 S13       29.93F
PINEY ISLAND   MOCLDY   N/A N/A N/A S7        29.94F
WILMINGTON     MOSUNNY   83  72  69 S6        29.93F


$$

NCZ011>013-027>030-043-044-078>080-089-090>093-098-292200-
COASTAL PLAIN

CITY           SKY/WX    TMP DP  RH WIND       PRES   REMARKS
AHOSKIE        MOSUNNY   81  66  59 CALM      29.94S
CLINTON        MOSUNNY   85  69  59 CALM      29.93F
ELIZABETHTOWN  MOSUNNY   89  58  35 CALM      29.93S
GOLDSBORO      MOSUNNY   87  70  57 S7        29.91S
GREENVILLE     PTSUNNY   82  68  61 E7        29.95S
HAVELOCK       PTSUNNY   84  66  54 SE7       29.95F
KENANSVILLE    MOSUNNY   82  65  56 CALM      29.94F
KINSTON        MOSUNNY   86  66  51 S9        29.94S
NEW BERN       MOSUNNY   85  66  53 SE6       29.95F
RICHLANDS      SUNNY     88  63  42 S8        29.94F
ROCKY MOUNT    MOSUNNY   87  61  41 CALM      29.93F
WASHINGTON     MOSUNNY   83  65  54 S6        29.94F
WHITEVILLE     MOSUNNY   87  63  44 W5        29.92F

$$

AMZ130-135-150-152-154-156-158-170-250-252-270-ANZ085-086-088-633-658-670-292200-
MARINE OBSERVATIONS

STATION/POSITION TIME  TEMP    WIND        PRES    WAVE   SWELL
                       AIR SEA DIR/SP/G            HT/PER HT/PER
                 (UTC) (F)     (DEG/KT/KT) (MB)    (FT/S) (FT/S)
CHESAPEAKE LIGHT 2100   76     130/  7/  7 1015.2
64 E VA BEACH    2050   77 78  140/  2/  4 1014.7    4/ 8   3/ 8
DUCK             2000   78 69  100/  8/ 10 1013.9
2 E DUCK         2011      75                N/A     2/ 8
OREGON INLET     2000   78 77   70/  7/  9 1014.6
13E OREGON INLT  2000      76                N/A     3/ 8
HATTERAS CG      2000   82 80  180/  3/  6 1014.3
DIAMOND BUOY     2050   80 81  230/  8/ 10 1014.0    4/ 8   3/ 8
CAPE LOOKOUT     2100   81     200/  9/ 12 1013.7
BEAUFORT LAB     2000   80 82  190/  7/  9 1013.7
30 SE NEW RVR IN NOT AVBL
27 SE WRIGHTSVLE 2000      82  190/ 10/ 12   N/A
5 SE WRIGHTSVLE  2008   80 80  160/  6/ 10 1014.2
225 S CAPE HAT   2050   80 80  210/ 16/ 19 1017.4    6/ 7
41 SE CHARLESTON 2050   82 83  220/ 12/ 14 1014.1    4/ 7   3/ 7

$$



USA.gov is the U.S. government's official web portal to all federal, state and local government web resources and services.